Airfield :
LOGIN :

Register | Disclaimer

   EN    FR    IT 

 










Legend :    VFR   Marginal VFR   IFR   Intensive IFR   Very Intensive IFR
Visi :
Ceiling :
>= 8 km
>= 3000ft
5 to 8 km
1000 to 3000 ft
1500m to 5 km
500 to 1000 ft
800 to 1500m
200 to 500 ft
< 800m
< 200 ft
Symbols :   Thunderstorms  Fog  Heavy snow  Heavy precipitations  Wind > 20 kt
SIGMETs :     Misc.  Thunderstorms  Icing  Turbulence  Mountain Waves  Volcanic Ashes







- Airport Elevation : 102 ft
- IATA code : EXT
- Download approach charts


EGTE - Exeter

CURRENT METAR :
  • 160120Z 21011KT 9999 BKN016 17/15 Q1014

EXPIRED METARs :
  • 160050Z 22012KT 9999 BKN014 17/15 Q1014
  • 160020Z 20011KT 170V230 9999 BKN014 18/15 Q1014
  • 152350Z 21013KT 9999 BKN015 19/16 Q1015
  • 152320Z 20013KT 9999 FEW010 SCT018 17/15 Q1015

TAF TAF EGTE
Valid from the 16 at 00:00 until the 16 at 03:00 UTC


152302Z 1600/1603 21010KT 9999 FEW010 BKN020
TEMPO 1600/1603 9000 BKN010
PROB30
TEMPO 1602/1603 4500 RA BKN008
No reported NOTAMs for that airfield.



MET'MAP, your aeronautical weather chart ! - Copyright ORBIFLY December 2007 - Disclaimer

ORBIFLY MET'MAP TEAM :

Programming & Development : Alexandra Zaïnal
Concept & Development : Baudouin d'Aumeries
Co-Development & Prog : Marc-Olivier Méhu
Technical & hardware support : Manuel Goepfert

Contact : metmap@orbifly.com




SOURCES & CREDITS :

   NOAA